This is the latest recevied weather packets stored in our database for station/object N2OCK. If no packets are shown the sender has not sent any weather packets the latest 10 day(s).
| Time | Temp. | Humidity | Pressure | Rain* | Wind** | Luminosity | Snow |
|---|---|---|---|---|---|---|---|
| 1778027272 | 17.22° C | 72% | 1011.1 hPa | 0 mm | - | 0 W/m² | - |
| 1778026968 | 17.22° C | 72% | 1010.7 hPa | 0 mm | - | 0 W/m² | - |
| 1778026664 | 17.22° C | 72% | 1010.7 hPa | 0 mm | - | 0 W/m² | - |
| 1778026362 | 17.22° C | 72% | 1010.8 hPa | 0 mm | - | 0 W/m² | - |
| 1778026058 | 17.22° C | 72% | 1010.5 hPa | 0 mm | - | 0 W/m² | - |
| 1778025756 | 17.22° C | 72% | 1010.4 hPa | 0 mm | - | 1 W/m² | - |
| 1778025452 | 17.22° C | 72% | 1010.6 hPa | 0 mm | - | 2 W/m² | - |
| 1778025150 | 17.22° C | 72% | 1010.5 hPa | 0 mm | - | 3 W/m² | - |
| 1778024847 | 17.22° C | 72% | 1010.4 hPa | 0 mm | - | 5 W/m² | - |
| 1778024545 | 17.22° C | 72% | 1010.3 hPa | 0 mm | - | 8 W/m² | - |
| 1778024241 | 17.22° C | 72% | 1010.2 hPa | 0 mm | - | 11 W/m² | - |
| 1778023939 | 17.22° C | 72% | 1010.4 hPa | 0 mm | - | 15 W/m² | - |
| 1778023635 | 17.22° C | 71% | 1010 hPa | 0 mm | - | 18 W/m² | - |
| 1778023333 | 17.78° C | 70% | 1009.9 hPa | 0 mm | - | 21 W/m² | - |
| 1778023030 | 17.78° C | 70% | 1010 hPa | 0 mm | - | 29 W/m² | - |
| 1778022729 | 17.78° C | 69% | 1009.9 hPa | 0 mm | - | 33 W/m² | - |
| 1778022427 | 18.33° C | 69% | 1009.6 hPa | 0 mm | - | 34 W/m² | - |
| 1778022123 | 18.33° C | 68% | 1009.7 hPa | 0 mm | - | 44 W/m² | - |
| 1778021819 | 18.33° C | 67% | 1009.7 hPa | 0 mm | - | 47 W/m² | - |
| 1778021516 | 18.33° C | 67% | 1009.8 hPa | 0 mm | - | 60 W/m² | - |
| 1778021211 | 18.33° C | 67% | 1009.9 hPa | 0 mm | - | 71 W/m² | - |
| 1778020910 | 18.33° C | 68% | 1009.8 hPa | 0 mm | - | 75 W/m² | - |
| 1778020607 | 18.33° C | 68% | 1009.6 hPa | 0 mm | - | 81 W/m² | - |
| 1778020303 | 18.89° C | 67% | 1009.7 hPa | 0 mm | - | 103 W/m² | - |
| 1778019998 | 18.89° C | 66% | 1009.8 hPa | 0 mm | - | 118 W/m² | - |
* Rain latest hour (hover to see other rain measurements)
** Current wind speed in m/s (hover to see current wind gust speed)